Back to catalog

FENGYUN 1C DEB

AliveSSO
NORAD 30494·DEBRIS·🇨🇳 China

Launched May 10, 1999 from Taiyuan Satellite Launch Center

Loading…

Next Passes (next 24 hours)

TLE

FreshSource: Space-Track

Epoch: Sep 14, 2026, 01:34 UTC

1 30494U 99025AHG 26257.06578542  .00000857  00000-0  76071-3 0  9998
2 30494  99.2605 291.8765 0185902 212.1907 146.7787 13.80081576982837

Track FENGYUN 1C DEB in real time with AllMySat

Download on the App Store